Погода в Круподеринцах

Украина / Полтавская область     49°55′16″N   32°30′00″E
темп.,
°C
ветер,
м/с
пор.,
м/с
влажн.,
%
обл.,
%
осадки,
мм/ч
давл.,
гПа
погр.,
м
14 мая, пт
пт1400:00+11юв41069100 0.0 1011198
03:00+11вюв376787 0.0 1011146
06:00+10вюв3780100 0.0 1010131
09:00+15юв467566 0.1 1009380
12:00+20ююв4665100 0.1 10081381
15:00+22ю575766 0.1 10071753
18:00+19ююз3873100 0.3 1007337
21:00+16ю2271100 0.3 100829
15 мая, сб
сб1500:00+14ю4128599 0.4 1008239
03:00+12ююз37955 0.4 1009146
06:00+11ююз36965 0.0 1010148
09:00+16юз46750 0.0 1011597
12:00+20юз576128 0.1 10111600
15:00+21зюз68514 0.1 10111847
18:00+18з3569100 0.1 1012212
21:00+16сз117226 0.2 101211
16 мая, вс
вс1600:00+13юв228038 0.0 101211
03:00+14зюз117758 0.1 101311
06:00+12сз22880 0.0 101330
09:00+18ссз11693 0.0 1013332
12:00+22в1153100 0.0 10131126
15:00+23вюв234785 0.0 10121983
18:00+23вюв3456100 0.0 1010949
21:00+18всв337071 0.0 101032
17 мая, пн
пн1700:00+16всв477711 0.0 1009114
03:00+15всв488297 0.0 1009129
06:00+15св3986100 0.4 1007184
09:00+15сз3393100 3.6 1006118
12:00+19сз5581100 0.1 1006629
15:00+19сз5480100 0.1 1006634
18:00+15зсз349534 1.1 1006135
21:00+14сз129622 1.1 100712
18 мая, вт
вт1800:00+13сз11974 0.0 100811
03:00+12зсз229611 0.0 100819
06:00+13зсз239794 0.1 100961
09:00+17зсз2381100 0.1 1009480
12:00+21зюз236299 0.1 10101444
15:00+22з44525 0.1 10091688
18:00+20сз346620 0.0 1009223
21:00+16ссз017797 0.1 100911